LAGEOS 2

Last updated on July 6, 2021, 3:43 p.m. UTC

1 22195U 92070B   21186.67800122 -.00000009  00000-0  00000-0 0  9991
2 22195  52.6728 328.9740 0137639 116.9181 300.2865  6.47293579678524
UTC
Height (km)
Latitude
Longitude
Inclination
Orbital Period
UTC large
Height (km)
Speed (km/s)
/
Latitude / Longitude
Inclination (degrees)
Orbital Period (minutes)
Azimuth
Elevation
Range (km)
Doppler Factor
iOS Compass Heading
iOS Angle